Location: Alafon
(8.4500°N, 4.2333°E)
Time: 22:28:31
(UTC+00:00)

S-56A Canister/Altair - All Passes

Search period start: 28 July 2021 00:00
Search period end: 07 August 2021 00:00
Orbit: 631 x 2501 km, 38.9° (Epoch: 28 July)

Date Brightness Start Highest point End Pass type
(mag) Time Alt. Az. Time Alt. Az. Time Alt. Az.
28 Jul - 00:22:28 10° WNW 00:30:52 47° SW 00:36:33 10° SSE visible
28 Jul - 11:00:13 10° S 11:08:07 30° SE 11:18:39 10° ENE daylight
28 Jul - 13:02:19 10° SW 13:13:14 81° NW 13:28:08 10° NE daylight
28 Jul - 15:09:48 10° W 15:21:14 33° NNW 15:34:08 10° NNE daylight
28 Jul - 17:23:45 10° NW 17:32:06 16° N 17:40:07 10° NNE daylight
28 Jul - 19:35:57 10° NNW 19:43:49 17° N 19:50:34 10° NE visible
28 Jul - 21:42:10 10° NNW 21:52:46 36° NNE 22:00:10 10° E visible
28 Jul - 23:48:45 10° WNW 23:58:12 60° SW 00:04:24 10° SE visible
29 Jul - 10:28:21 10° S 10:35:10 24° SE 10:44:00 10° E daylight
29 Jul - 12:29:35 10° SW 12:39:51 90° ESE 12:54:23 10° NE daylight
29 Jul - 14:36:12 10° W 14:47:26 36° NNW 15:00:42 10° NNE daylight
29 Jul - 16:49:12 10° NW 16:58:00 18° NNW 17:06:44 10° NNE daylight
29 Jul - 19:01:57 10° NNW 19:09:58 17° N 19:17:01 10° NE visible
29 Jul - 21:08:33 10° NNW 21:19:28 33° NNE 21:27:17 10° E visible
29 Jul - 23:15:02 10° NW 23:25:27 74° SW 23:32:09 10° SE visible
30 Jul - 09:56:49 10° S 10:02:17 18° SE 10:09:05 10° E daylight
30 Jul - 11:56:59 10° SW 12:06:35 80° SE 12:20:33 10° NE daylight
30 Jul - 14:02:48 10° W 14:13:41 39° NNW 14:27:11 10° NNE daylight
30 Jul - 16:14:48 10° NW 16:23:56 19° NNW 16:33:16 10° NNE daylight
30 Jul - 18:27:55 10° NNW 18:36:02 16° N 18:43:20 10° NE visible
30 Jul - 20:34:55 10° NNW 20:46:02 31° NNE 20:54:17 10° E visible
30 Jul - 22:41:18 10° NW 22:52:35 87° SW 22:59:48 10° SE visible
31 Jul - 00:52:14 10° W 00:56:02 14° SW 00:59:17 10° SSW night (unlit)
31 Jul - 09:25:55 10° SSE 09:29:28 13° SE 09:33:31 10° ESE daylight
31 Jul - 11:24:30 10° SW 11:33:25 70° SE 11:46:40 10° NE daylight
31 Jul - 13:29:34 10° W 13:40:01 43° NNW 13:53:37 10° NE daylight
31 Jul - 15:40:35 10° WNW 15:49:53 20° NNW 15:59:44 10° NNE daylight
31 Jul - 17:53:51 10° NNW 18:02:00 16° N 18:09:33 10° NE daylight
31 Jul - 20:01:15 10° NNW 20:12:31 29° NNE 20:21:09 10° E visible
31 Jul - 22:07:34 10° NW 22:19:36 82° NE 22:27:22 10° SE visible
01 Aug - 00:17:21 10° W 00:23:24 20° SW 00:28:08 10° S night (unlit)
01 Aug - 10:52:09 10° SSW 11:00:23 59° SE 11:12:43 10° ENE daylight
01 Aug - 12:56:28 10° WSW 13:06:27 47° NNW 13:20:00 10° NE daylight
01 Aug - 15:06:32 10° WNW 15:15:52 21° NNW 15:26:09 10° NNE daylight
01 Aug - 17:19:47 10° NNW 17:27:55 16° N 17:35:40 10° NE daylight
01 Aug - 19:27:35 10° NNW 19:38:53 27° NNE 19:47:52 10° ENE visible
01 Aug - 21:33:50 10° NW 21:46:31 72° NE 21:54:50 10° ESE visible
01 Aug - 23:42:54 10° WNW 23:50:44 26° SW 23:56:31 10° S visible
02 Aug - 10:19:54 10° SSW 10:27:28 49° SE 10:38:42 10° ENE daylight
02 Aug - 12:23:32 10° WSW 12:32:59 51° NW 12:46:22 10° NE daylight
02 Aug - 14:32:41 10° WNW 14:41:55 22° NNW 14:52:31 10° NNE daylight
02 Aug - 16:45:45 10° NNW 16:53:47 16° N 17:01:41 10° NE daylight
02 Aug - 18:53:55 10° NNW 19:05:09 26° NNE 19:14:26 10° ENE visible
02 Aug - 21:00:07 10° NW 21:13:18 64° NE 21:22:11 10° ESE visible
02 Aug - 23:08:37 10° WNW 23:18:01 34° SW 23:24:39 10° SSE visible
03 Aug - 09:47:47 10° SSW 09:54:38 39° SE 10:04:37 10° ENE daylight
03 Aug - 11:50:43 10° WSW 11:59:37 57° NW 12:12:41 10° NE daylight
03 Aug - 13:59:01 10° WNW 14:08:04 24° NNW 14:18:51 10° NNE daylight
03 Aug - 16:11:46 10° NNW 16:19:39 16° N 16:27:37 10° NNE daylight
03 Aug - 18:20:18 10° NNW 18:31:20 24° NNE 18:40:50 10° ENE visible
03 Aug - 20:26:25 10° NW 20:39:59 57° NE 20:49:27 10° ESE visible
03 Aug - 22:34:27 10° WNW 22:45:13 42° SW 22:52:37 10° SSE visible
04 Aug - 09:15:48 10° S 09:21:54 31° SE 09:30:27 10° ENE daylight
04 Aug - 11:18:01 10° WSW 11:26:22 64° NW 11:38:59 10° NE daylight
04 Aug - 13:25:31 10° WNW 13:34:18 25° NNW 13:45:10 10° NNE daylight
04 Aug - 15:37:50 10° NW 15:45:31 16° N 15:53:30 10° NNE daylight
04 Aug - 17:46:42 10° NNW 17:57:25 22° NNE 18:07:03 10° ENE daylight
04 Aug - 19:52:45 10° NW 20:06:32 52° NE 20:16:34 10° ESE visible
04 Aug - 22:00:21 10° WNW 22:12:19 52° SW 22:20:26 10° SSE visible
05 Aug - 08:44:01 10° S 08:49:14 24° SE 08:56:11 10° E daylight
05 Aug - 10:45:26 10° WSW 10:53:14 73° NW 11:05:17 10° NE daylight
05 Aug - 12:52:10 10° WNW 13:00:38 27° NNW 13:11:29 10° NNE daylight
05 Aug - 15:04:00 10° NW 15:11:25 16° N 15:19:21 10° NNE daylight
05 Aug - 17:13:08 10° NNW 17:23:27 21° NNE 17:33:04 10° ENE daylight
05 Aug - 19:19:07 10° NW 19:33:01 47° NNE 19:43:32 10° ESE visible
05 Aug - 21:26:20 10° WNW 21:39:19 62° SW 21:48:07 10° SE visible
05 Aug - 23:42:10 10° WSW 23:43:15 10° SW 23:44:19 10° SW visible
06 Aug - 08:12:31 10° S 08:16:38 17° SE 08:21:42 10° E daylight
06 Aug - 10:12:57 10° SW 10:20:13 83° NW 10:31:35 10° NE daylight
06 Aug - 12:18:58 10° W 12:27:04 28° NNW 12:37:48 10° NNE daylight
06 Aug - 14:30:15 10° NW 14:37:22 16° N 14:45:12 10° NNE daylight
06 Aug - 16:39:38 10° NNW 16:49:25 20° NNE 16:58:54 10° ENE daylight
06 Aug - 18:45:33 10° NW 18:59:23 43° NNE 19:10:22 10° E visible
06 Aug - 20:52:24 10° NW 21:06:12 72° SW 21:15:42 10° SE visible
06 Aug - 23:05:00 10° W 23:10:25 15° SW 23:14:59 10° SSW visible
